Location: Buckland
(65.9785°N, 161.1281°W)
Time: 04:55:21
(UTC+00:00)

Transit 4A - Pass Details

Date: 30 November 2020
Orbit: 864 x 980 km, 66.8° (Epoch: 26 January)

Event Time Altitude Azimuth Distance (km) Brightness Sun altitude
Rises 16:41:28 0° 143° (SE) 3,661 11.8 -19.0°
Reaches altitude 10° 16:47:16 10° 101° (ESE) 2,736 11.6 -18.4°
Maximum altitude 16:47:45 10° 97° (E) 2,731 11.6 -18.4°
Drops below altitude 10° 16:48:14 10° 93° (E) 2,739 11.6 -18.3°
Sets 16:54:04 0° 51° (NE) 3,694 11.6 -17.8°
